Location: Arrien
(43.3167°N, 0.1500°W)
Time: 16:35:08
(UTC+00:00)

Cosmos 1544 Rocket - Pass Details

Date: 05 June 2022
Orbit: 603 x 631 km, 82.5° (Epoch: 29 June)

Event Time Altitude Azimuth Distance (km) Brightness Sun altitude
Rises 23:16:17 0° 8° (N) 2,894 8.2 -23.3°
Reaches altitude 10° 23:19:18 10° 30° (NNE) 1,977 6.8 -23.4°
Maximum altitude 23:22:03 16° 69° (ENE) 1,594 5.8 -23.5°
Enters shadow 23:23:02 15° 85° (E) 1,642 5.7 -23.5°
